Time,TemperatureF,DewpointF,PressureIn,WindDirection,WindDirectionDegrees,WindSpeedMPH,WindSpeedGustMPH,Humidity,HourlyPrecipIn,Conditions,Clouds,dailyrainin,SoftwareType,DateUTC
2013-02-23 00:00:00,30.0,25.5,30.33,ESE,112,0.0,0.0,83,0.00,,---,0.00,VWS V14.01,2013-02-23 04:00:00,
2013-02-23 00:30:00,30.0,25.2,30.33,ESE,112,0.0,0.0,82,0.00,,---,0.00,VWS V14.01,2013-02-23 04:30:00,
2013-02-23 01:00:00,30.4,25.9,30.33,ESE,112,0.0,0.0,83,0.00,,---,0.00,VWS V14.01,2013-02-23 05:00:00,
2013-02-23 01:30:00,30.4,25.9,30.32,ESE,112,0.0,0.0,83,0.00,,---,0.00,VWS V14.01,2013-02-23 05:30:00,
2013-02-23 02:00:00,30.8,26.3,30.31,ESE,112,0.0,0.0,83,0.00,,---,0.00,VWS V14.01,2013-02-23 06:00:00,
2013-02-23 02:30:00,30.3,25.5,30.31,ESE,112,0.0,0.0,82,0.00,,---,0.00,VWS V14.01,2013-02-23 06:30:00,
2013-02-23 03:00:00,29.6,25.1,30.30,ESE,112,0.0,0.0,83,0.00,,---,0.00,VWS V14.01,2013-02-23 07:00:00,
2013-02-23 03:30:00,29.9,25.7,30.29,ESE,112,0.0,0.0,84,0.00,,---,0.00,VWS V14.01,2013-02-23 07:30:00,
2013-02-23 04:00:00,29.4,25.2,30.29,ESE,112,0.0,0.0,84,0.00,,---,0.00,VWS V14.01,2013-02-23 08:00:00,
2013-02-23 04:30:00,29.7,25.8,30.28,ESE,112,0.0,0.0,85,0.00,,---,0.00,VWS V14.01,2013-02-23 08:30:00,
2013-02-23 05:00:00,30.5,26.2,30.27,ESE,112,0.0,0.0,84,0.00,,---,0.00,VWS V14.01,2013-02-23 09:00:00,
2013-02-23 05:30:00,30.5,26.0,30.27,ESE,112,0.0,0.0,83,0.00,,---,0.00,VWS V14.01,2013-02-23 09:30:00,
2013-02-23 06:00:00,30.6,26.4,30.27,ESE,112,0.0,0.0,84,0.00,,---,0.00,VWS V14.01,2013-02-23 10:00:00,
2013-02-23 06:30:00,30.2,26.2,30.26,ESE,112,0.0,0.0,85,0.00,,---,0.00,VWS V14.01,2013-02-23 10:30:00,
2013-02-23 07:00:00,30.6,26.6,30.25,ESE,112,0.0,0.0,85,0.00,,---,0.00,VWS V14.01,2013-02-23 11:00:00,
2013-02-23 07:30:00,30.7,26.2,30.25,ESE,112,0.0,0.0,83,0.00,,---,0.00,VWS V14.01,2013-02-23 11:30:00,
2013-02-23 08:00:00,30.7,26.5,30.25,ESE,112,0.0,0.0,84,0.00,,---,0.00,VWS V14.01,2013-02-23 12:00:00,
2013-02-23 08:30:00,31.5,26.9,30.24,ESE,112,0.0,0.0,83,0.00,,---,0.00,VWS V14.01,2013-02-23 12:30:00,
2013-02-23 09:00:00,32.0,27.1,30.24,ESE,112,0.0,0.0,82,0.00,,---,0.00,VWS V14.01,2013-02-23 13:00:00,
2013-02-23 09:30:00,32.5,26.7,30.24,ESE,112,0.0,0.0,79,0.00,,---,0.00,VWS V14.01,2013-02-23 13:30:00,
2013-02-23 10:00:00,33.6,27.8,30.24,ESE,112,0.0,0.0,79,0.00,,---,0.00,VWS V14.01,2013-02-23 14:00:00,
2013-02-23 10:30:00,34.6,28.5,30.23,ESE,112,0.0,1.0,78,0.00,,---,0.00,VWS V14.01,2013-02-23 14:30:00,
2013-02-23 11:00:00,35.6,29.1,30.21,ESE,112,0.0,2.0,77,0.00,,---,0.00,VWS V14.01,2013-02-23 15:00:00,
2013-02-23 11:30:00,36.8,29.6,30.21,ESE,112,0.0,2.0,75,0.00,,---,0.00,VWS V14.01,2013-02-23 15:30:00,
2013-02-23 12:00:00,36.6,29.8,30.19,South,180,2.0,7.0,76,0.00,,---,0.00,VWS V14.01,2013-02-23 16:00:00,
2013-02-23 12:30:00,36.9,30.0,30.18,South,180,1.0,6.0,76,0.00,,---,0.00,VWS V14.01,2013-02-23 16:30:00,
2013-02-23 13:00:00,37.6,29.7,30.16,ENE,68,1.0,6.0,73,0.00,,---,0.00,VWS V14.01,2013-02-23 17:00:00,
2013-02-23 13:30:00,37.8,29.6,30.15,SSE,158,1.0,4.0,72,0.00,,---,0.00,VWS V14.01,2013-02-23 17:30:00,
2013-02-23 14:00:00,37.9,29.4,30.13,SSE,158,1.0,6.0,71,0.00,,---,0.00,VWS V14.01,2013-02-23 18:00:00,
2013-02-23 14:30:00,37.9,29.7,30.13,South,180,1.0,7.0,72,0.00,,---,0.00,VWS V14.01,2013-02-23 18:30:00,
2013-02-23 15:00:00,38.2,30.3,30.12,South,180,1.0,5.0,73,0.00,,---,0.00,VWS V14.01,2013-02-23 19:00:00,
2013-02-23 15:30:00,37.8,30.3,30.12,South,180,1.0,7.0,74,0.00,,---,0.00,VWS V14.01,2013-02-23 19:30:00,
2013-02-23 16:00:00,37.1,31.2,30.11,South,180,1.0,6.0,79,0.00,,---,0.00,VWS V14.01,2013-02-23 20:00:00,
2013-02-23 16:30:00,36.1,32.3,30.11,SSE,158,1.0,4.0,86,0.00,,---,0.00,VWS V14.01,2013-02-23 20:30:00,
2013-02-23 17:00:00,35.4,32.5,30.09,South,180,0.0,5.0,89,0.00,,---,0.00,VWS V14.01,2013-02-23 21:00:00,
2013-02-23 17:30:00,35.2,32.8,30.09,ESE,112,0.0,4.0,91,0.00,,---,0.00,VWS V14.01,2013-02-23 21:30:00,
2013-02-23 18:00:00,35.2,32.8,30.09,ESE,112,0.0,1.0,91,0.00,,---,0.00,VWS V14.01,2013-02-23 22:00:00,
2013-02-23 18:30:00,34.8,32.5,30.07,ESE,112,0.0,2.0,91,0.00,,---,0.00,VWS V14.01,2013-02-23 22:30:00,
2013-02-23 19:00:00,34.6,32.2,30.07,East,90,0.0,1.0,91,0.00,,---,0.00,VWS V14.01,2013-02-23 23:00:00,
2013-02-23 19:30:00,34.7,32.1,30.06,ESE,112,0.0,2.0,90,0.00,,---,0.00,VWS V14.01,2013-02-23 23:30:00,
2013-02-23 20:00:00,34.1,31.8,30.05,ESE,112,0.0,1.0,91,0.00,,---,0.00,VWS V14.01,2013-02-24 00:00:00,
2013-02-23 20:30:00,33.6,31.5,30.05,ESE,112,0.0,0.0,92,0.00,,---,0.00,VWS V14.01,2013-02-24 00:30:00,
2013-02-23 21:00:00,33.6,31.8,30.04,ESE,112,0.0,0.0,93,0.00,,---,0.00,VWS V14.01,2013-02-24 01:00:00,
2013-02-23 21:30:00,33.5,31.7,30.03,ESE,112,0.0,0.0,93,0.01,,---,0.01,VWS V14.01,2013-02-24 01:30:00,
2013-02-23 22:00:00,33.4,31.6,30.02,ESE,112,0.0,0.0,93,0.01,,---,0.01,VWS V14.01,2013-02-24 02:00:00,
2013-02-23 22:30:00,33.4,31.9,29.99,ESE,112,0.0,0.0,94,0.01,,---,0.01,VWS V14.01,2013-02-24 02:30:00,
2013-02-23 23:00:00,33.3,31.8,30.00,ESE,112,0.0,0.0,94,0.00,,---,0.01,VWS V14.01,2013-02-24 03:00:00,
2013-02-23 23:30:00,33.2,31.7,29.98,ESE,112,0.0,1.0,94,0.00,,---,0.01,VWS V14.01,2013-02-24 03:30:00,